• Join FlightAware (Why Join?)
  • Login
  • US Flag GB Flag 
04:29 EDT


 

Airport Tracker/Info


-or-


 

Live Flight TrackerFlight Track Log ✈ DAL8949 ✈ 21-Jun-2013 ✈ KMIA - KSAT

Flight Track Log - Related Links

Times and Time Zones

All times are in EDT time to prevent confusion due to time zone crossing. See the DAL8949 flight status page for this flight to view local times or setup timezone preferences in your user account.

Time Position Orientation Groundspeed Altitude Reporting Facility
EDT Latitude Longitude Course Direction KTS MPH feet Rate Location/Type
11:50 25.7983 -80.2653 84° East 165 190 1,000  Level Miami Center
11:52 25.8039 -80.2078 84° East 194 223 3,000 1,980 Climbing Miami Center
11:53 25.8181 -80.1342 78° East 254 292 5,300 2,160 Climbing Miami Center
11:53 25.8664 -80.1239 11° North 277 319 6,700 1,020 Climbing Miami Center
11:54 25.9406 -80.1675 332° Northwest 277 319 7,000 300 Climbing Miami Center
11:55 25.9700 -80.2447 293° West 289 333 7,300 1,680 Climbing Miami Center
11:56 25.9972 -80.3311 289° West 289 333 10,400 2,160 Climbing Miami Center
11:57 26.0244 -80.4197 289° West 315 362 11,700 1,320 Climbing Miami Center
11:58 26.0572 -80.5317 288° West 357 411 13,100 1,860 Climbing Miami Center
11:59 26.0961 -80.6392 292° West 397 457 15,500 1,620 Climbing Miami Center
12:00 26.1797 -80.7228 318° Northwest 397 457 16,400 1,440 Climbing Miami Center
12:01 26.2689 -80.8253 314° West 404 465 18,400 1,800 Climbing Miami Center
12:02 26.3603 -80.9164 318° Northwest 433 498 20,000 1,620 Climbing Miami Center
12:03 26.4517 -81.0100 317° Northwest 443 510 21,700 1,500 Climbing Miami Center
12:04 26.5469 -81.1039 319° Northwest 443 510 23,000 1,200 Climbing Miami Center
12:05 26.6403 -81.2003 317° Northwest 455 524 24,100 1,200 Climbing Miami Center
12:06 26.7294 -81.2894 318° Northwest 468 539 25,500 1,620 Climbing Miami Center
12:07 26.8344 -81.4031 316° Northwest 473 544 27,400 1,380 Climbing Miami Center
12:08 26.9406 -81.4861 325° Northwest 466 536 28,300 720 Climbing Miami Center
12:09 27.0617 -81.5469 336° Northwest 468 539 28,900 960 Climbing Miami Center
12:10 27.1806 -81.6172 332° Northwest 479 551 30,300 1,200 Climbing Miami Center
12:11 27.2847 -81.6844 330° Northwest 484 557 31,300 1,260 Climbing Miami Center
12:12 27.4158 -81.7533 335° Northwest 479 551 32,900 1,260 Climbing Miami Center
12:13 27.5369 -81.8122 337° Northwest 473 544 33,900 960 Climbing Miami Center
12:14 27.6564 -81.8642 339° North 468 539 34,900 960 Climbing Miami Center
12:15 27.7611 -81.9133 337° Northwest 463 533 35,900 360 Climbing Miami Center
12:17 27.9611 -82.0044 338° Northwest 464 534 35,900  Level Jacksonville Center
12:18 28.0681 -82.0858 326° Northwest 451 519 36,000  Climbing Jacksonville Center
12:19 28.1647 -82.1722 322° Northwest 451 519 35,900 -60 Descending Jacksonville Center
12:20 28.2631 -82.2611 321° Northwest 451 519 35,900  Level Jacksonville Center
12:21 28.3617 -82.3500 322° Northwest 451 519 36,000  Climbing Jacksonville Center
12:22 28.4600 -82.4392 321° Northwest 451 519 36,000 -60 Level Jacksonville Center
12:23 28.5564 -82.5261 322° Northwest 451 519 35,900  Descending Jacksonville Center
12:24 28.6567 -82.6181 321° Northwest 451 519 36,000  Climbing Jacksonville Center
12:25 28.7508 -82.7008 322° Northwest 444 511 35,900  Descending Jacksonville Center
12:26 28.8489 -82.7906 321° Northwest 444 511 36,000  Climbing Jacksonville Center
12:27 28.9472 -82.8783 322° Northwest 444 511 36,000 -60 Level Jacksonville Center
12:28 29.0389 -82.9661 320° Northwest 444 511 35,900 -60 Descending Jacksonville Center
12:29 29.1328 -83.0494 322° Northwest 439 505 35,900  Level Jacksonville Center
12:30 29.2244 -83.1353 321° Northwest 434 499 35,900  Level Jacksonville Center
12:31 29.3203 -83.2214 322° Northwest 434 499 35,900  Level Jacksonville Center
12:32 29.4161 -83.3217 318° Northwest 429 494 35,900  Level Jacksonville Center
12:33 29.4742 -83.4436 299° West 424 488 35,900  Level Jacksonville Center
12:34 29.5278 -83.5681 296° West 429 494 35,900  Level Jacksonville Center
12:35 29.5833 -83.6972 296° West 434 499 35,900  Level Jacksonville Center
12:36 29.6367 -83.8244 296° West 439 505 35,900  Level Jacksonville Center
12:37 29.6922 -83.9494 297° West 445 512 35,900  Level Jacksonville Center
12:38 29.7494 -84.0719 298° West 445 512 36,000  Climbing Jacksonville Center
12:39 29.8092 -84.1611 308° West 440 506 35,900 -60 Descending Jacksonville Center
12:40 29.8914 -84.2844 308° West 440 506 35,900  Level Jacksonville Center
12:41 29.9633 -84.3981 306° West 440 506 35,900  Level Jacksonville Center
12:42 30.0392 -84.5122 308° West 440 506 35,900  Level Jacksonville Center
12:43 30.1128 -84.6264 307° West 445 512 36,000  Climbing Jacksonville Center
12:44 30.1886 -84.7358 309° West 445 512 36,000  Level Jacksonville Center
12:45 30.2619 -84.8478 307° West 445 512 36,000  Level Jacksonville Center
12:46 30.3081 -84.9761 293° West 440 506 36,000 -60 Level Jacksonville Center
12:47 30.3264 -85.1139 279° West 424 488 35,900 -60 Descending Jacksonville Center
12:48 30.3450 -85.2514 279° West 429 494 35,900  Level Jacksonville Center
12:49 30.3653 -85.3867 280° West 434 499 35,900  Level Jacksonville Center
12:50 30.3833 -85.5269 279° West 434 499 35,900  Level Jacksonville Center
12:51 30.4031 -85.6767 279° West 434 499 35,900  Level Jacksonville Center
12:52 30.4208 -85.8194 278° West 439 505 35,900  Level Jacksonville Center
12:53 30.4383 -85.9572 278° West 439 505 36,000  Climbing Jacksonville Center
12:54 30.4558 -86.1000 278° West 444 511 36,000  Level Jacksonville Center
12:55 30.4731 -86.2378 278° West 444 511 36,000  Level Jacksonville Center
12:56 30.4922 -86.3783 279° West 444 511 36,000  Level Jacksonville Center
12:57 30.5050 -86.5186 276° West 443 510 36,000 -60 Level Jacksonville Center
12:58 30.5072 -86.6633 271° West 443 510 35,900 -60 Descending Jacksonville Center
12:59 30.5092 -86.8031 271° West 443 510 35,900  Level Jacksonville Center
13:00 30.5089 -86.9431 270° West 443 510 35,900  Level Jacksonville Center
13:01 30.5114 -87.0661 271° West 443 510 36,000  Climbing Jacksonville Center
13:02 30.5128 -87.2083 271° West 443 510 36,000  Level Jacksonville Center
13:03 30.5122 -87.3458 270° West 438 504 36,000  Level Jacksonville Center
13:05 30.5150 -87.6511 271° West 433 498 36,000  Level Houston Center
13:06 30.5161 -87.7917 271° West 435 501 36,000  Level Houston Center
13:07 30.5158 -87.9336 270° West 438 504 36,000 -60 Level Houston Center
13:08 30.5164 -88.0758 270° West 438 504 35,900  Descending Houston Center
13:09 30.5169 -88.2494 270° West 444 511 36,000  Climbing Houston Center
13:10 30.5153 -88.3947 269° West 446 513 36,000  Level Houston Center
13:11 30.5153 -88.5403 270° West 450 518 36,000  Level Houston Center
13:12 30.5156 -88.6856 270° West 450 518 36,000  Level Houston Center
13:13 30.5142 -88.8306 269° West 450 518 36,000 -60 Level Houston Center
13:14 30.5153 -89.0000 270° West 451 519 35,900 -60 Descending Houston Center
13:15 30.5150 -89.1444 270° West 450 518 35,900  Level Houston Center
13:16 30.5133 -89.2883 269° West 448 516 35,900  Level Houston Center
13:18 30.5136 -89.4336 270° West 452 520 35,900  Level Houston Center
13:19 30.5131 -89.5792 270° West 455 524 35,900  Level Houston Center
13:20 30.5128 -89.7514 270° West 452 520 35,900  Level Houston Center
13:21 30.5097 -89.8953 269° West 456 525 35,900  Level Houston Center
13:22 30.5072 -90.0400 269° West 459 528 35,900  Level Houston Center
13:23 30.5050 -90.1881 269° West 469 540 35,900  Level Houston Center
13:24 30.5031 -90.3644 269° West 462 532 35,900  Level Houston Center
13:25 30.4994 -90.5131 268° West 465 535 35,900  Level Houston Center
13:26 30.4978 -90.6622 269° West 466 536 35,900  Level Houston Center
13:27 30.4936 -90.8133 268° West 471 542 35,900  Level Houston Center
13:28 30.4903 -90.9636 269° West 471 542 35,900  Level Houston Center
13:29 30.4772 -91.1142 264° West 470 541 36,000  Climbing Houston Center
13:30 30.4558 -91.2931 262° West 470 541 36,000 -60 Level Houston Center
13:31 30.4392 -91.4419 263° West 468 539 35,900 -60 Descending Houston Center
13:32 30.4203 -91.5906 262° West 466 536 35,900  Level Houston Center
13:33 30.4000 -91.7522 262° West 467 537 36,000  Climbing Houston Center
13:34 30.3825 -91.9019 262° West 468 539 36,000  Level Houston Center
13:35 30.3633 -92.0522 262° West 471 542 36,000  Level Houston Center
13:36 30.3439 -92.2017 261° West 469 540 36,000  Level Houston Center
13:37 30.3258 -92.3528 262° West 466 536 36,000 -60 Level Houston Center
13:38 30.3069 -92.4989 262° West 460 529 35,900 -60 Descending Houston Center
13:39 30.2836 -92.6764 261° West 464 534 35,900  Level Houston Center
13:40 30.2644 -92.8222 261° West 461 531 35,900  Level Houston Center
13:41 30.2456 -92.9686 262° West 460 529 36,000  Climbing Houston Center
13:42 30.2258 -93.1147 261° West 459 528 35,900 -60 Descending Houston Center
13:43 30.2061 -93.2611 261° West 458 527 35,900  Level Houston Center
13:44 30.1847 -93.4078 260° West 457 526 35,900  Level Houston Center
13:45 30.1664 -93.5564 262° West 457 526 35,900  Level Houston Center
13:47 30.1422 -93.7317 261° West 455 524 35,900  Level Houston Center
13:48 30.1217 -93.8753 261° West 452 520 36,000  Climbing Houston Center
13:49 30.1025 -94.0172 261° West 450 518 35,900 -60 Descending Houston Center
13:50 30.0819 -94.1600 261° West 452 520 35,900  Level Houston Center
13:51 30.0622 -94.3036 261° West 454 522 36,000  Climbing Houston Center
13:52 30.0411 -94.4461 260° West 455 524 36,000  Level Houston Center
13:53 30.0211 -94.5928 261° West 460 529 36,000  Level Houston Center
13:54 29.9961 -94.7631 260° West 453 521 36,000  Level Houston Center
13:55 29.9753 -94.9058 260° West 453 521 36,000  Level Houston Center
13:56 29.9544 -95.0489 260° West 456 525 36,000  Level Houston Center
13:57 29.9336 -95.1917 260° West 457 526 36,000  Level Houston Center
13:58 29.9081 -95.3619 260° West 456 525 36,000  Level Houston Center
13:59 29.8864 -95.5044 260° West 455 524 36,000  Level Houston Center
14:00 29.8650 -95.6461 260° West 455 524 36,000  Level Houston Center
14:01 29.8406 -95.7875 259° West 454 522 36,000  Level Houston Center
14:02 29.8186 -95.9297 260° West 454 522 36,000  Level Houston Center
14:03 29.8039 -96.0753 263° West 454 522 36,000 -60 Level Houston Center
14:04 29.8575 -96.2233 293° West 418 481 35,900 -60 Descending Houston Center
14:05 29.9067 -96.3444 295° West 420 483 35,900  Level Houston Center
14:06 29.9533 -96.4664 294° West 419 482 36,000  Climbing Houston Center
14:07 30.0025 -96.5847 296° West 414 476 35,900 -120 Descending Houston Center
14:08 30.0489 -96.7058 294° West 415 478 35,800 -1,260 Descending Houston Center
14:09 30.1075 -96.8519 295° West 418 481 33,300 -2,280 Descending Houston Center
14:10 30.1561 -96.9778 294° West 434 499 31,200 -1,140 Descending Houston Center
14:11 30.2006 -97.1150 291° West 447 514 31,000 -1,020 Descending Houston Center
14:12 30.1742 -97.2533 258° West 444 511 29,200 -2,040 Descending Houston Center
14:13 30.1169 -97.3772 242° Southwest 435 501 26,800 -2,820 Descending Houston Center
14:14 30.0581 -97.5131 243° Southwest 412 474 23,400 -3,060 Descending Houston Center
14:16 30.0464 -97.6367 264° West 383 441 20,500 -3,480 Descending Houston Center
14:17 30.0136 -97.7581 253° West 372 428 16,300 -3,780 Descending Houston Center
14:18 29.9306 -97.8314 217° Southwest 373 429 12,700 -2,460 Descending Houston Center
14:19 29.8700 -97.9267 234° Southwest 343 395 11,300 -1,140 Descending Houston Center
14:20 29.8339 -98.0142 245° Southwest 303 349 10,400 -1,260 Descending Houston Center
14:21 29.7992 -98.0958 244° Southwest 278 320 8,800 -1,620 Descending Houston Center
14:22 29.7631 -98.1797 244° Southwest 274 315 7,200 -1,320 Descending Houston Center
14:23 29.7283 -98.2617 244° Southwest 265 305 6,100 -600 Descending Houston Center
14:24 29.6964 -98.3367 244° Southwest 262 302 6,000  Descending Houston Center
14:25 29.6625 -98.4164 244° Southwest 260 299 6,100 -180 Climbing Houston Center
14:26 29.6694 -98.4847 277° West 246 283 5,700 -780 Descending Houston Center
14:27 29.7069 -98.5497 304° West 249 287 4,600 -1,020 Descending Houston Center
14:28 29.7206 -98.6083 285° West 235 270 3,900 -420 Descending Houston Center
14:29 29.6689 -98.6169 188° South 202 232 3,900 -300 Level Houston Center
14:30 29.6292 -98.5953 155° Southeast 168 193 3,400 -840 Descending Houston Center
14:31 29.5939 -98.5539 134° Southeast 147 169 2,300 -840 Descending Houston Center
14:32 29.5653 -98.5139 129° Southeast 129 148 1,500 -660 Descending Houston Center
14:33 29.5483 -98.4919 132° Southeast 123 142 1,000 -720 Descending Houston Center
14:35 29.5340 -98.4691 180° South  Level Estimated
14:42 29.5333 -98.4667 16° North  Level FlightAware Approximate